This demonstration page uses our WeatherBlox Daily Observations layout. Learn more.

Hourly Observations for July 14, 2018

Temp ( °F °C ) Dew Point ( °F °C ) Humidity (%) Winds ( mph kmh ) Pressure ( in mb ) Visibility ( mi km ) Precip ( " mm )
12:15 am 00:15 Clear with Mist and Fog 67 19.6 67 19.6 100 100 Calm 30.06 1018 4 6.43736 0 0
12:35 am 00:35 Clear with Mist and Fog 67 19.4 67 19.4 100 100 Calm 30.06 1018 4 6.43736 0 0
12:55 am 00:55 Clear with Mist and Fog 66 19 66 19 100 100 Calm 30.06 1018 4 6.43736 0 0
1:15 am 01:15 Cloudy with Mist and Fog 65 18.5 65 18.5 100 100 Calm 30.06 1018 0.75 1.207005 0 0
1:35 am 01:35 Cloudy with Mist and Fog 65 18.1 65 18.1 100 100 Calm 30.06 1018 1 1.60934 0 0
1:55 am 01:55 Cloudy with Fog 64 17.8 64 17.8 100 100 Calm 30.06 1018 5 8.0467 0 0
2:15 am 02:15 Cloudy with Fog 64 17.7 64 17.7 100 100 Calm 30.06 1018 0.25 0.402335 0 0
2:35 am 02:35 Cloudy with Fog 63 17.3 63 17.3 100 100 Calm 30.06 1018 0.25 0.402335 0 0
2:55 am 02:55 Cloudy with Fog 63 17.4 63 17.4 100 100 Calm 30.06 1018 0.25 0.402335 0 0
3:15 am 03:15 Cloudy with Fog 64 18 64 18 100 100 NNW 3 6 30.06 1018 0.25 0.402335 0 0
3:35 am 03:35 Cloudy with Fog 64 18 64 18 100 100 Calm 30.06 1018 0.25 0.402335 0 0
3:55 am 03:55 Cloudy with Fog 64 18 64 18 100 100 Calm 30.06 1018 0.25 0.402335 0 0
4:15 am 04:15 Cloudy with Fog 64 18 64 18 100 100 Calm 30.06 1018 5 8.0467 0 0
4:35 am 04:35 Cloudy with Fog 64 18 64 18 100 100 N 3 6 30.06 1018 0.25 0.402335 0 0
4:55 am 04:55 Cloudy with Fog 65 18.1 65 18.1 100 100 N 3 6 30.06 1018 0.25 0.402335 0 0
5:15 am 05:15 Cloudy with Fog 65 18.3 65 18.3 100 100 Calm 30.06 1018 5 8.0467 0 0
5:35 am 05:35 Cloudy with Fog 65 18.5 65 18.5 100 100 ENE 3 6 30.06 1018 0.25 0.402335 0 0
5:55 am 05:55 Cloudy with Fog 65 18.5 65 18.5 100 100 Calm 30.06 1018 0.25 0.402335 0 0
6:15 am 06:15 Cloudy with Light Rain 65 18.5 65 18.5 100 100 Calm 30.06 1018 5 8.0467 0 0
6:35 am 06:35 Cloudy with Fog 65 18.3 65 18.3 100 100 Calm 30.06 1018 5 8.0467 0 0
6:55 am 06:55 Cloudy with Fog 65 18.3 65 18.3 100 100 N 3 6 30.06 1018 5 8.0467 0 0
7:15 am 07:15 Cloudy with Fog 65 18.5 65 18.5 100 100 N 3 6 30.06 1018 5 8.0467 0 0
7:35 am 07:35 Cloudy with Fog 66 18.7 66 18.7 100 100 Calm 30.06 1018 5 8.0467 0 0
7:55 am 07:55 Cloudy with Fog 66 19.1 66 19.1 100 100 Calm 30.06 1018 0.5 0.80467 0 0
8:15 am 08:15 Cloudy with Mist and Fog 67 19.4 67 19.4 100 100 Calm 30.06 1018 0.75 1.207005 0 0
8:35 am 08:35 Cloudy with Mist and Fog 67 19.5 67 19.5 100 100 E 3 6 30.06 1018 1.25 2.011675 0 0
8:55 am 08:55 Cloudy with Mist and Fog 67 19.5 67 19.5 100 100 ENE 3 6 30.06 1018 3 4.82802 0 0
9:15 am 09:15 Cloudy with Mist and Fog 67 19.6 67 19.6 100 100 ENE 3 6 30.06 1018 4 6.43736 0 0
9:35 am 09:35 Cloudy 67 19.4 67 19.4 100 100 E 5 7 30.06 1018 7 11.26538 0 0
9:55 am 09:55 Cloudy 67 19.2 67 19.2 100 100 E 5 7 30.06 1018 7 11.26538 0 0
10:15 am 10:15 Cloudy 67 19.4 67 19.4 100 100 ENE 5 7 30.06 1018 10 16.0934 0 0
10:35 am 10:35 Cloudy 67 19.5 67 19.5 100 100 Calm 30.06 1018 10 16.0934 0 0
10:55 am 10:55 Cloudy 69 20.6 69 20.6 100 100 Calm 30.06 1018 10 16.0934 0 0
11:15 am 11:15 Cloudy 70 21 68 19.8 93 93 NNE 3 6 30.03 1017 10 16.0934 0 0
11:35 am 11:35 Cloudy 71 21.4 67 19.6 90 90 ENE 3 6 30.03 1017 10 16.0934 0 0
11:55 am 11:55 Cloudy 72 22.2 67 19.5 85 85 ESE 3 6 30.03 1017 10 16.0934 0 0
12:15 pm 12:15 Mostly Cloudy 73 23 67 19.2 79 79 NE 3 6 30.03 1017 10 16.0934 0 0
12:35 pm 12:35 Mostly Cloudy 74 23.2 67 19.2 78 78 E 5 7 30.03 1017 10 16.0934 0 0
12:55 pm 12:55 Cloudy 74 23.5 68 20 81 81 ENE 8 13 30.03 1017 10 16.0934 0 0
1:15 pm 13:15 Cloudy 74 23.5 68 19.8 80 80 Calm 30.03 1017 10 16.0934 0 0
1:35 pm 13:35 Cloudy 75 23.7 67 19.7 78 78 ESE 5 7 30.03 1017 10 16.0934 0 0
1:55 pm 13:55 Cloudy 75 23.9 68 20 79 79 ENE 3 6 30.03 1017 10 16.0934 0 0
2:15 pm 14:15 Cloudy 76 24.5 68 19.8 75 75 E 7 11 30 1016 10 16.0934 0 0
2:35 pm 14:35 Cloudy 77 25 68 20 74 74 Calm 30 1016 10 16.0934 0 0
2:55 pm 14:55 Cloudy 77 25.2 67 19.4 70 70 ESE 7 11 29.97 1015 10 16.0934 0 0
3:15 pm 15:15 Partly Cloudy 78 25.5 67 19.6 70 70 SE 5 7 29.97 1015 10 16.0934 0 0
3:35 pm 15:35 Partly Cloudy 80 26.4 69 20.3 69 69 SSE 6 9 29.97 1015 10 16.0934 0 0
3:55 pm 15:55 Mostly Cloudy 79 26.2 69 20.4 70 70 ESE 6 9 29.97 1015 10 16.0934 0 0
4:15 pm 16:15 Cloudy 79 26 68 20 70 70 SSE 3 6 29.97 1015 10 16.0934 0 0
4:35 pm 16:35 Mostly Cloudy 80 26.7 70 21 71 71 ESE 5 7 29.94 1014 10 16.0934 0 0
4:55 pm 16:55 Partly Cloudy 81 27.3 71 21.4 70 70 SE 6 9 29.94 1014 10 16.0934 0 0
5:15 pm 17:15 Partly Cloudy 81 27.2 69 20.8 68 68 SSE 3 6 29.94 1014 10 16.0934 0 0
5:35 pm 17:35 Partly Cloudy 81 27 68 20.1 66 66 SSE 5 7 29.94 1014 10 16.0934 0 0
5:55 pm 17:55 Partly Cloudy 81 27.3 69 20.4 66 66 Calm 29.88 1012 10 16.0934 0 0
6:15 pm 18:15 Partly Cloudy 81 27.3 69 20.6 67 67 SSE 3 6 29.88 1012 10 16.0934 0 0
6:35 pm 18:35 Partly Cloudy 81 27.3 69 20.7 67 67 SSE 5 7 29.88 1012 10 16.0934 0 0
6:55 pm 18:55 Partly Cloudy 80 26.9 69 20.4 68 68 SSE 3 6 29.91 1013 10 16.0934 0 0
7:15 pm 19:15 Partly Cloudy 81 27.2 69 20.4 66 66 Calm 29.88 1012 10 16.0934 0 0
7:35 pm 19:35 Partly Cloudy 81 27.1 69 20.5 67 67 Calm 29.88 1012 10 16.0934 0 0
7:55 pm 19:55 Partly Cloudy 81 27 70 21.1 70 70 SE 3 6 29.91 1013 10 16.0934 0 0
8:15 pm 20:15 Sunny 79 26.1 71 21.9 78 78 Calm 29.91 1013 10 16.0934 0 0
8:35 pm 20:35 Sunny 79 25.9 71 21.7 78 78 E 3 6 29.91 1013 10 16.0934 0 0
8:55 pm 20:55 Sunny 77 25.2 71 21.9 82 82 Calm 29.91 1013 10 16.0934 0 0
9:15 pm 21:15 Clear 75 23.8 72 22.2 91 91 E 3 6 29.91 1013 10 16.0934 0 0
9:35 pm 21:35 Clear 75 23.9 71 21.7 88 88 E 5 7 29.91 1013 10 16.0934 0 0
9:55 pm 21:55 Partly Cloudy 73 22.5 71 21.4 94 94 E 5 7 29.94 1014 10 16.0934 0 0
10:15 pm 22:15 Partly Cloudy 72 22.2 70 21.2 94 94 E 5 7 29.97 1015 10 16.0934 0 0
10:35 pm 22:35 Clear 72 22.2 70 21 93 93 E 7 11 29.97 1015 10 16.0934 0 0
10:55 pm 22:55 Clear 71 21.9 70 21 95 95 E 6 9 29.97 1015 10 16.0934 0 0
11:15 pm 23:15 Clear 71 21.5 69 20.8 96 96 E 6 9 29.97 1015 10 16.0934 0 0
11:35 pm 23:35 Clear 69 20.8 69 20.3 97 97 ESE 6 9 29.97 1015 10 16.0934 0 0
11:55 pm 23:55 Clear 69 20.6 69 20.3 98 98 E 6 9 29.97 1015 10 16.0934 0 0

Powered by AerisWeather